[[{"header":{"parameterUnit":"m.s-1","parameterCategory":1,"la1":30.2991,"la2":30.254,"lo1":-89.0895,"lo2":-89.0444,"dy":0.0017,"dx":0.0017,"nx":28,"ny":28,"refTime":"2023-08-05T21:00:00:Z","depth":0,"parameterNumber":2,"parameterNumberName":"U-component_of_WINDS"},"data":[0,0,0,0,0,0,0,0,0,0,0,0,0,0,0,0,0,0,0,0,0,0,0,0,0,0,0,0,0,0,0,0,0,0,0,0,0,0,0,0,0,0,0,0,0,0,0,0,0,0,0,0,0,0,0,0,0,0,5.7719,5.7721,0,5.7921,5.7923,5.7926,5.789,5.7886,5.7883,5.7879,5.8085,5.8094,5.8103,0,0,0,0,0,0,0,0,0,0,0,0,0,5.7297,5.7305,5.7718,5.7721,5.7723,5.7921,5.7923,5.7926,5.789,5.7886,5.7882,5.7878,5.8083,5.8093,5.8103,0,0,0,0,0,0,0,0,0,0,0,0,0,5.7488,5.7308,5.7718,5.7729,5.7732,5.792,5.7924,5.7927,5.7891,5.7886,5.7881,5.7876,5.8079,5.8092,5.8105,5.8294,0,0,5.8145,5.8151,0,0,0,0,0,0,0,0,5.7477,5.7504,5.7725,5.7729,5.7733,5.7875,5.7851,5.805,5.7893,5.7831,5.7879,5.7873,5.802,5.8037,5.8087,5.8303,5.8312,5.8146,5.8155,5.816,5.8164,0,0,0,0,0,0,0,5.7464,5.7495,5.7798,5.7728,5.7733,5.7723,5.7745,5.7888,5.7953,5.7836,5.7834,5.7858,5.8021,5.8074,5.8092,5.8315,5.8146,5.8158,5.8166,5.8171,5.8692,5.8698,0,0,0,0,0,0,5.7448,5.7484,5.7792,5.7805,5.7589,5.7735,5.7759,5.7834,5.7951,5.7964,5.7863,5.7856,5.8054,5.8076,5.8099,5.8324,5.816,5.8172,5.818,5.8686,5.8693,5.87,0,0,0,0,0,0,5.7439,5.7476,5.7784,5.7644,5.7682,5.7748,5.7833,5.7841,5.7895,5.7971,5.7982,5.7906,5.8051,5.808,5.8245,5.8331,5.8178,5.819,5.8679,5.8688,5.8697,5.8778,0,0,0,0,0,0,5.7427,5.7473,5.7546,5.7646,5.769,5.7928,5.7839,5.7849,5.7918,5.7911,5.8015,5.8027,5.8049,5.8225,5.8258,5.8346,5.8201,5.8672,5.8683,5.8694,5.8768,5.8788,5.8806,0,0,0,0,0,5.7412,5.7561,5.755,5.7587,5.7783,5.7933,5.7958,5.7981,5.7925,5.7998,5.8047,5.8024,5.8317,5.8242,5.8279,5.8372,5.8666,5.868,5.8693,5.8759,5.8784,5.8806,0,0,0,0,0,0,5.747,5.7574,5.7563,5.7749,5.7832,5.7926,5.8019,5.8007,5.8107,5.8097,5.812,5.8144,5.831,5.8358,5.8274,5.8559,5.8484,5.8505,5.8521,5.8546,5.8565,5.8548,5.8212,0,0,0,0,0,5.7504,5.7618,5.7703,5.7859,5.7901,5.7953,5.8019,5.803,5.8117,5.8151,5.8212,5.8297,5.8407,5.848,5.8586,5.8775,5.8795,5.8858,5.8877,5.8892,5.8909,5.9009,5.9036,5.8744,5.8743,5.8743,0,0,5.7576,5.7647,5.7718,5.7872,5.7938,5.8053,5.7983,5.8109,5.8194,5.817,5.8328,5.8376,5.8472,5.8648,5.8729,5.8693,5.8995,5.8909,5.8921,5.893,5.9025,5.9053,5.9078,5.8753,5.8751,5.8749,0,0,5.7765,5.7833,5.7968,5.8035,5.8135,5.8168,5.8201,5.8297,5.8327,5.8487,5.847,5.8572,5.8763,5.8831,5.889,5.9104,5.9084,5.9138,5.9237,5.9334,5.9357,5.9377,5.945,5.9476,5.9155,5.9156,5.9156,0,5.7842,5.8016,5.8039,5.8166,5.8233,5.8217,5.8353,5.8417,5.8546,5.8592,5.8551,5.8788,5.8852,5.9042,5.9094,5.9144,5.918,5.9125,5.9352,5.9373,5.9392,5.9461,5.9489,5.9161,5.9161,5.916,5.9159,0,5.8103,5.8224,5.8322,5.8446,5.8525,5.8656,5.8697,5.8773,5.8777,5.8814,5.8975,5.9051,5.917,5.9217,5.9222,5.9408,5.9382,5.9346,5.927,5.9425,5.949,5.9517,5.9169,5.9167,5.9165,5.9164,0,0,5.8334,5.8469,5.8504,5.8559,5.8667,5.876,5.889,5.9007,5.907,5.9161,5.9267,5.9429,5.9396,5.9463,5.9476,5.9562,5.9721,5.9515,5.9518,5.9547,5.9926,5.9949,5.9979,5.971,5.9716,5.972,5.9916,0,5.8531,5.8759,5.8782,5.8986,5.9096,5.9082,5.9194,5.9272,5.931,5.9408,5.945,5.9562,5.9512,5.9552,5.9637,5.9684,5.9797,5.9671,5.9807,5.9812,5.978,6.0014,6.004,6.0221,5.9942,5.9947,5.995,0,5.8791,5.8887,5.9101,5.9191,5.9238,5.9339,5.9446,5.9541,5.9628,5.965,5.9725,5.9726,5.9857,5.9778,5.9957,5.987,5.9928,5.9959,5.9967,5.9978,5.9887,6.0027,6.028,6.0306,5.9991,5.9988,5.9985,0,5.8932,5.9116,5.9267,5.9315,5.9425,5.9495,5.9545,5.9627,5.9695,5.9789,5.9832,5.9941,6.0,6.0083,6.0112,6.0053,6.0289,6.0213,6.0308,6.0307,6.0356,6.0351,6.0617,6.0399,6.0399,6.0398,6.0398,0,5.9147,5.9278,5.9331,5.9424,5.9569,5.9594,5.9737,5.9782,5.9855,5.9955,5.9951,6.0044,6.0078,6.0177,6.0201,6.0344,6.0371,6.039,6.0394,6.0389,6.0386,6.0424,6.0411,6.0406,6.0404,6.0403,6.0401,0,5.9329,5.9371,5.9533,5.9624,5.965,5.9752,5.9829,5.9918,5.9954,6.008,6.0111,6.0169,6.0284,6.0322,6.0463,6.0479,6.0643,6.0639,6.0614,6.0613,6.0704,6.0693,6.1001,6.1041,6.08,6.0802,6.0804,0,5.9462,5.9561,5.9663,5.9729,5.978,5.9888,5.9957,5.9986,6.0057,6.0163,6.0238,6.0352,6.0445,6.063,6.0684,6.079,6.0785,6.0886,6.0801,6.0791,6.0782,6.0774,6.0782,6.09,6.0903,6.0905,6.0907,0,5.9691,5.9706,5.9806,5.9913,5.9995,6.008,6.0163,6.0217,6.0258,6.0338,6.0456,6.0528,6.067,6.0783,6.0891,6.094,6.093,6.0933,6.096,6.0953,6.0933,6.0941,6.0653,6.0925,6.0924,6.0922,6.0921,6.092,5.985,5.9937,6.002,6.0131,6.0196,6.0272,6.0358,6.0405,6.0504,6.0622,6.0633,6.076,6.0842,6.0986,6.104,6.1138,6.111,6.115,6.1159,6.1167,6.1172,6.092,6.1159,6.1158,6.1158,6.1158,6.1157,0,6.0076,6.0129,6.023,6.0345,6.0431,6.0415,6.0504,6.0577,6.0688,6.0766,6.0857,6.0991,6.11,6.1162,6.127,6.1336,6.1333,6.1363,6.1356,6.1367,6.1194,6.1158,6.1363,6.1363,6.1363,6.1363,6.1363,6.1363,6.0203,6.0347,6.0372,6.0548,6.06,6.0723,6.0775,6.0845,6.0907,6.1056,6.1147,6.1186,6.1257,6.137,6.1468,6.1483,6.1522,6.1554,6.1565,6.1401,6.138,6.136,6.1326,6.1563,6.1563,6.173,6.1731,6.1733]},{"header":{"parameterUnit":"m.s-1","parameterCategory":1,"la1":30.2991,"la2":30.254,"lo1":-89.0895,"lo2":-89.0444,"dy":0.0017,"dx":0.0017,"nx":28,"ny":28,"refTime":"2023-08-05T21:00:00:Z","depth":0,"parameterNumber":3,"parameterNumberName":"V-component_of_WINDS"},"data":[0,0,0,0,0,0,0,0,0,0,0,0,0,0,0,0,0,0,0,0,0,0,0,0,0,0,0,0,0,0,0,0,0,0,0,0,0,0,0,0,0,0,0,0,0,0,0,0,0,0,0,0,0,0,0,0,0,0,2.4463,2.4463,0,2.4528,2.4529,2.453,2.4501,2.4499,2.4497,2.4496,2.4562,2.4565,2.4568,0,0,0,0,0,0,0,0,0,0,0,0,0,2.4309,2.4312,2.4463,2.4464,2.4464,2.4528,2.4529,2.453,2.4501,2.4499,2.4497,2.4495,2.4561,2.4565,2.4569,0,0,0,0,0,0,0,0,0,0,0,0,0,2.4376,2.4313,2.4463,2.4457,2.4458,2.4528,2.4529,2.453,2.4501,2.4499,2.4496,2.4494,2.456,2.4564,2.4569,2.4648,0,0,2.4584,2.4586,0,0,0,0,0,0,0,0,2.4372,2.4381,2.4457,2.4458,2.4458,2.4504,2.4499,2.457,2.4502,2.4485,2.4496,2.4493,2.4545,2.4551,2.4568,2.4651,2.4654,2.4585,2.4588,2.459,2.4591,0,0,0,0,0,0,0,2.4367,2.4378,2.4489,2.4459,2.4459,2.4451,2.4458,2.4513,2.4527,2.4486,2.4484,2.4492,2.4544,2.4564,2.4569,2.4655,2.4585,2.4589,2.4592,2.4594,2.4805,2.4807,0,0,0,0,0,0,2.4363,2.4375,2.4487,2.4491,2.4408,2.4456,2.4463,2.4492,2.4527,2.453,2.4494,2.4491,2.4556,2.4564,2.4572,2.4666,2.459,2.4594,2.4597,2.4802,2.4805,2.4808,0,0,0,0,0,0,2.436,2.4373,2.4484,2.4432,2.4446,2.4461,2.4493,2.4494,2.4513,2.4533,2.4535,2.4511,2.4555,2.4565,2.4629,2.4668,2.4597,2.4601,2.4799,2.4803,2.4807,2.4855,0,0,0,0,0,0,2.4356,2.4372,2.4403,2.4433,2.4449,2.4541,2.4495,2.4497,2.4522,2.4518,2.455,2.4553,2.4554,2.4622,2.4634,2.4673,2.4605,2.4795,2.4801,2.4805,2.485,2.486,2.4869,0,0,0,0,0,2.435,2.4414,2.4405,2.4419,2.4488,2.4544,2.4552,2.4553,2.4525,2.4556,2.4568,2.4552,2.4661,2.4629,2.4642,2.4683,2.4793,2.4799,2.4805,2.4846,2.4858,2.4869,0,0,0,0,0,0,2.4389,2.4418,2.4408,2.4484,2.4512,2.4538,2.4577,2.4566,2.4601,2.4596,2.4594,2.4601,2.4668,2.4682,2.4645,2.4761,2.4723,2.4732,2.4749,2.4761,2.477,2.4766,2.4609,0,0,0,0,0,2.4406,2.445,2.4473,2.4537,2.4552,2.4562,2.4587,2.4584,2.4612,2.4624,2.4641,2.4668,2.4709,2.4736,2.4774,2.4851,2.4857,2.4886,2.4895,2.4903,2.4911,2.4952,2.4964,2.4828,2.4828,2.4827,0,0,2.4443,2.4464,2.4492,2.4546,2.4567,2.4611,2.4572,2.4621,2.4654,2.4631,2.4693,2.4706,2.4737,2.4808,2.484,2.4821,2.495,2.4911,2.4917,2.492,2.4959,2.4972,2.4984,2.4832,2.4831,2.483,0,0,2.4532,2.4552,2.4608,2.463,2.4662,2.4668,2.4681,2.471,2.4718,2.478,2.4763,2.4801,2.4871,2.4893,2.4914,2.5009,2.4995,2.5021,2.5071,2.511,2.5121,2.5131,2.5164,2.5176,2.5029,2.5029,2.5029,0,2.4573,2.464,2.4638,2.4688,2.4712,2.4693,2.4749,2.4769,2.4812,2.4829,2.4807,2.4894,2.4913,2.4989,2.5012,2.5029,2.5043,2.5018,2.512,2.5129,2.5138,2.517,2.5183,2.5032,2.5032,2.5032,2.5031,0,2.4688,2.4735,2.4775,2.4817,2.4846,2.4898,2.4904,2.4932,2.4927,2.4935,2.4997,2.5019,2.5061,2.5079,2.5074,2.5153,2.5141,2.512,2.5082,2.5154,2.5184,2.5196,2.5037,2.5035,2.5035,2.5034,0,0,2.4805,2.4844,2.4859,2.4877,2.491,2.4946,2.4997,2.5038,2.5062,2.5092,2.5134,2.5193,2.5173,2.5196,2.5193,2.5228,2.5301,2.5203,2.5203,2.522,2.5389,2.5404,2.5419,2.5291,2.5294,2.5296,2.5386,0,2.4896,2.4986,2.4985,2.5068,2.5111,2.5092,2.5136,2.5161,2.5169,2.5205,2.5214,2.5256,2.5227,2.5241,2.5274,2.5285,2.5335,2.5279,2.533,2.5332,2.5324,2.5434,2.5452,2.5536,2.5398,2.54,2.5401,0,2.5015,2.5049,2.5136,2.5161,2.5179,2.5219,2.5256,2.5291,2.5318,2.5321,2.5346,2.5338,2.5388,2.5348,2.5417,2.5379,2.5399,2.5408,2.5411,2.5416,2.5371,2.5442,2.5563,2.5575,2.5419,2.5418,2.5417,0,2.5091,2.5158,2.5218,2.5234,2.5266,2.5294,2.5308,2.5333,2.5357,2.5389,2.5404,2.5442,2.5462,2.549,2.5492,2.5462,2.5561,2.5521,2.5565,2.5565,2.5587,2.5586,2.5713,2.56,2.56,2.56,2.5599,0,2.5193,2.5247,2.5253,2.529,2.5349,2.5347,2.5406,2.5417,2.5439,2.5477,2.5463,2.5499,2.5498,2.5535,2.5536,2.5592,2.5602,2.5605,2.5605,2.5607,2.5606,2.5621,2.5615,2.5603,2.5602,2.5602,2.5601,0,2.5289,2.5295,2.5359,2.5383,2.5391,2.5433,2.5453,2.5488,2.5495,2.5543,2.5555,2.5565,2.5606,2.561,2.5659,2.5659,2.5728,2.5721,2.5719,2.5718,2.5761,2.5757,2.5902,2.592,2.5796,2.5797,2.5798,0,2.5354,2.5395,2.5423,2.5448,2.5464,2.5504,2.5529,2.5527,2.5553,2.5586,2.5616,2.5657,2.5689,2.5757,2.5768,2.5805,2.5799,2.5847,2.5804,2.5804,2.5799,2.5797,2.5801,2.5855,2.5857,2.5858,2.5859,0,2.5469,2.5469,2.5505,2.5542,2.5572,2.5601,2.5628,2.5649,2.565,2.568,2.5723,2.5748,2.5797,2.5837,2.5873,2.5886,2.5873,2.5872,2.5884,2.5887,2.5884,2.5885,2.5742,2.5869,2.5868,2.5867,2.5867,2.5866,2.5551,2.5586,2.5611,2.5652,2.5671,2.5697,2.573,2.574,2.5776,2.5817,2.5813,2.586,2.5884,2.593,2.5947,2.5983,2.5966,2.5984,2.5988,2.5993,2.5997,2.5877,2.5989,2.5989,2.5989,2.5988,2.5988,0,2.5665,2.568,2.5717,2.5755,2.5786,2.577,2.5799,2.5826,2.5868,2.5891,2.5923,2.5971,2.601,2.6023,2.606,2.6087,2.6081,2.6096,2.6094,2.6098,2.601,2.5996,2.61,2.61,2.61,2.61,2.61,2.61,2.5728,2.5786,2.5789,2.5857,2.5871,2.5917,2.5935,2.5957,2.5976,2.6031,2.6063,2.6071,2.609,2.6128,2.6162,2.6165,2.6179,2.6197,2.6197,2.6115,2.6104,2.6093,2.608,2.62,2.62,2.6282,2.6283,2.6284]}]]